New Ulm, MN

4:00 PM CST on February 07, 2016 (GMT -0600)
New Ulm Municipal

Weather History for KULM - May, 2013

Change the Weather History Date:

Saturday, May 18, 2013

  Actual Average Record
Temperature  
Mean Temperature 71 °F -  
Max Temperature 82 °F 74 °F 93 °F (1970)
Min Temperature 60 °F 49 °F 32 °F (1976)
Cooling Degree Days 6    
Growing Degree Days 21 (Base 50)    
Moisture  
Dew Point 63 °F    
Average Humidity 75    
Maximum Humidity 94    
Minimum Humidity 51    
Precipitation  
Precipitation 0.01 in - - ()
Sea Level Pressure  
Sea Level Pressure 29.85 in    
Wind  
Wind Speed 11 mph (SE)    
Max Wind Speed 22 mph    
Max Gust Speed 29 mph    
Visibility 9 miles    
Events Rain , Thunderstorm    
Averages and records for this station are not official NWS values.
T = Trace of Precipitation, MM = Missing Value Source: NWS Daily Summary

Daily Weather History Graph

Daily Weather History Graph

Search for Another Location

Airport or City:

Trip Planner

Search our weather history database for the weather conditions in past years. The results will help you decide how hot, cold, wet, or windy it might be!

Date:

Astronomy

May. 18, 2013 Rise Set
Actual Time 5:47 AM CDT 8:41 PM CDT
Civil Twilight 5:13 AM CDT 9:16 PM CDT
Nautical Twilight 4:30 AM CDT 9:59 PM CDT
Astronomical Twilight 3:39 AM CDT 10:51 PM CDT
Moon 1:30 PM CDT (5/18) 1:56 AM CDT (5/18)
Length of Visible Light 16h 02m
Length of Day
14h 54m
First Quarter, 55% of the Moon is Illuminated
May 18
First Quarter
May 24
Full
May 31
Last Quarter
Jun 8
New
Jun 16
First Quarter

Hourly Weather History & Observations

Time (CDT) Temp. Heat Index Dew Point Humidity Pressure Visibility Wind Dir Wind Speed Gust Speed Precip Events Conditions
12:13 AM 60.8 °F - 59.0 °F 94% 29.90 in 7.0 mi ESE 9.2 mph - N/A   Clear
12:32 AM 62.6 °F - 59.0 °F 88% 29.90 in 7.0 mi ESE 11.5 mph - N/A   Clear
12:53 AM 62.6 °F - 59.0 °F 88% 29.90 in 7.0 mi ESE 9.2 mph - N/A   Scattered Clouds
1:13 AM 62.6 °F - 60.8 °F 94% 29.90 in 7.0 mi SE 9.2 mph - N/A Thunderstorm Scattered Clouds
1:32 AM 62.6 °F - 60.8 °F 94% 29.89 in 7.0 mi SE 10.4 mph - N/A Thunderstorm Mostly Cloudy
1:53 AM 64.4 °F - 60.8 °F 88% 29.89 in 7.0 mi SE 10.4 mph - N/A Thunderstorm Thunderstorm
2:13 AM 64.4 °F - 60.8 °F 88% 29.89 in 7.0 mi SE 11.5 mph - N/A Thunderstorm Scattered Clouds
2:33 AM 64.4 °F - 60.8 °F 88% 29.89 in 7.0 mi SSE 11.5 mph - N/A Thunderstorm Scattered Clouds
2:52 AM 66.2 °F - 62.6 °F 88% 29.88 in 10.0 mi SSE 12.7 mph - N/A Rain Light Rain
3:13 AM 64.4 °F - 62.6 °F 94% 29.89 in 10.0 mi SSE 10.4 mph - N/A Thunderstorm Mostly Cloudy
3:31 AM 64.4 °F - 60.8 °F 88% 29.88 in 1.0 mi SE 9.2 mph - N/A   Unknown
3:53 AM 64.4 °F - 60.8 °F 88% 29.88 in 10.0 mi SSE 10.4 mph - N/A Thunderstorm Scattered Clouds
4:13 AM 64.4 °F - 60.8 °F 88% 29.87 in 10.0 mi SE 12.7 mph - N/A Thunderstorm Scattered Clouds
4:33 AM 64.4 °F - 60.8 °F 88% 29.88 in 10.0 mi SE 11.5 mph - N/A   Mostly Cloudy
4:53 AM 64.4 °F - 60.8 °F 88% 29.88 in 10.0 mi SSE 9.2 mph - N/A   Mostly Cloudy
5:13 AM 64.4 °F - 60.8 °F 88% 29.88 in 10.0 mi SE 8.1 mph - N/A Thunderstorm Thunderstorm
5:33 AM 64.4 °F - 60.8 °F 88% 29.88 in 7.0 mi SSE 8.1 mph - N/A Rain , Thunderstorm Light Thunderstorms and Rain
5:52 AM 64.4 °F - 60.8 °F 88% 29.88 in 10.0 mi SSE 13.8 mph - N/A Thunderstorm Mostly Cloudy
6:13 AM 64.4 °F - - N/A% 29.87 in 10.0 mi SSE 13.8 mph - N/A Thunderstorm Scattered Clouds
6:33 AM 64.4 °F - 60.8 °F 88% 29.87 in 7.0 mi SSE 13.8 mph - N/A Rain , Thunderstorm Light Thunderstorms and Rain
6:52 AM 64.4 °F - 60.8 °F 88% 29.87 in 10.0 mi SSE 16.1 mph - N/A Thunderstorm Scattered Clouds
7:13 AM 64.4 °F - 62.6 °F 94% 29.92 in 7.0 mi NW 12.7 mph 18.4 mph N/A Rain , Thunderstorm Heavy Thunderstorms and Rain
7:33 AM 66.2 °F - 62.6 °F 88% 29.91 in 10.0 mi South 5.8 mph 16.1 mph 0.01 in   Mostly Cloudy
7:53 AM 66.2 °F - 62.6 °F 88% 29.92 in 10.0 mi ESE 3.5 mph - 0.01 in Thunderstorm Thunderstorm
8:13 AM 66.2 °F - 62.6 °F 88% 29.90 in 10.0 mi SE 12.7 mph - N/A Thunderstorm Scattered Clouds
8:33 AM 66.2 °F - 62.6 °F 88% 29.91 in 10.0 mi SE 10.4 mph - N/A Thunderstorm Scattered Clouds
8:52 AM 66.2 °F - 62.6 °F 88% 29.92 in 10.0 mi ESE 4.6 mph 10.4 mph N/A Thunderstorm Thunderstorm
9:13 AM 66.2 °F - 62.6 °F 88% 29.93 in 10.0 mi ESE 5.8 mph - N/A   Scattered Clouds
9:32 AM 66.2 °F - 62.6 °F 88% 29.93 in 10.0 mi East 9.2 mph - N/A   Scattered Clouds
9:53 AM 66.2 °F - 62.6 °F 88% 29.93 in 7.0 mi East 13.8 mph - N/A   Scattered Clouds
10:13 AM 66.2 °F - 62.6 °F 88% 29.92 in 7.0 mi ESE 13.8 mph - N/A   Scattered Clouds
10:32 AM 66.2 °F - 62.6 °F 88% 29.91 in 7.0 mi ESE 13.8 mph - N/A   Clear
10:53 AM 69.8 °F - 64.4 °F 83% 29.91 in 7.0 mi ESE 12.7 mph - N/A   Clear
11:13 AM 71.6 °F - 66.2 °F 83% 29.91 in 10.0 mi SE 12.7 mph - N/A   Clear
11:32 AM 71.6 °F - 66.2 °F 83% 29.89 in 10.0 mi SE 13.8 mph - N/A   Scattered Clouds
11:53 AM 75.2 °F - 68.0 °F 78% 29.89 in 10.0 mi SE 11.5 mph - N/A   Clear
12:13 PM 75.2 °F - 66.2 °F 73% 29.88 in 10.0 mi SE 13.8 mph 18.4 mph N/A   Clear
12:32 PM 75.2 °F - 68.0 °F 78% 29.87 in 10.0 mi SSE 13.8 mph - N/A   Clear
12:53 PM 77.0 °F - 68.0 °F 74% 29.87 in 10.0 mi SSE 15.0 mph 19.6 mph N/A   Clear
1:13 PM 78.8 °F - 68.0 °F 69% 29.86 in 10.0 mi South 11.5 mph - N/A   Clear
1:32 PM 78.8 °F - 68.0 °F 69% 29.85 in 10.0 mi South 16.1 mph - N/A   Clear
1:53 PM 78.8 °F - 68.0 °F 69% 29.85 in 10.0 mi SSE 10.4 mph - N/A   Scattered Clouds
2:13 PM 78.8 °F - 66.2 °F 65% 29.85 in 10.0 mi SSE 12.7 mph 18.4 mph N/A   Scattered Clouds
2:33 PM 80.6 °F 82.7 °F 66.2 °F 61% 29.84 in 10.0 mi South 17.3 mph 23.0 mph N/A   Clear
2:53 PM 80.6 °F 82.3 °F 64.4 °F 58% 29.82 in 10.0 mi South 17.3 mph 23.0 mph N/A   Clear
3:13 PM 80.6 °F 82.7 °F 66.2 °F 61% 29.83 in 10.0 mi SSE 16.1 mph 21.9 mph N/A   Clear
3:33 PM 82.4 °F 84.6 °F 66.2 °F 58% 29.82 in 10.0 mi SSE 17.3 mph 21.9 mph N/A   Scattered Clouds
3:53 PM 82.4 °F 83.9 °F 64.4 °F 54% 29.79 in 10.0 mi South 20.7 mph 28.8 mph N/A   Clear
4:13 PM 82.4 °F 83.9 °F 64.4 °F 54% 29.78 in 10.0 mi SSE 20.7 mph 28.8 mph N/A   Clear
4:33 PM 82.4 °F 83.9 °F 64.4 °F 54% 29.79 in 10.0 mi South 21.9 mph 27.6 mph N/A   Clear
4:53 PM 82.4 °F 83.9 °F 64.4 °F 54% 29.80 in 10.0 mi South 20.7 mph 26.5 mph N/A   Clear
5:12 PM 82.4 °F 83.4 °F 62.6 °F 51% 29.81 in 10.0 mi South 19.6 mph 25.3 mph N/A   Clear
5:33 PM 82.4 °F 83.9 °F 64.4 °F 54% 29.81 in 10.0 mi SSE 18.4 mph - N/A   Clear
5:53 PM 82.4 °F 83.9 °F 64.4 °F 54% 29.81 in 10.0 mi South 17.3 mph 20.7 mph N/A   Clear
6:12 PM 82.4 °F 83.9 °F 64.4 °F 54% 29.81 in 10.0 mi South 16.1 mph - N/A   Scattered Clouds
6:33 PM 82.4 °F 83.4 °F 62.6 °F 51% 29.82 in 10.0 mi South 12.7 mph 20.7 mph N/A   Scattered Clouds
6:53 PM 80.6 °F 81.8 °F 62.6 °F 54% 29.81 in 10.0 mi South 13.8 mph 19.6 mph N/A   Mostly Cloudy
7:12 PM 82.4 °F 83.4 °F 62.6 °F 51% 29.81 in 10.0 mi South 11.5 mph 17.3 mph N/A   Scattered Clouds
7:33 PM 80.6 °F 81.8 °F 62.6 °F 54% 29.80 in 10.0 mi South 10.4 mph - N/A   Scattered Clouds
7:53 PM 80.6 °F 81.8 °F 62.6 °F 54% 29.80 in 10.0 mi South 8.1 mph - N/A   Clear
8:12 PM 78.8 °F - 62.6 °F 57% 29.78 in 10.0 mi SE 5.8 mph - N/A   Clear
8:33 PM 75.2 °F - 62.6 °F 65% 29.78 in 10.0 mi SE 4.6 mph - N/A   Clear
8:53 PM 75.2 °F - 62.6 °F 65% 29.77 in 10.0 mi ESE 4.6 mph - N/A   Clear
9:12 PM 77.0 °F - 62.6 °F 61% 29.77 in 10.0 mi East 4.6 mph - N/A   Clear
9:33 PM 75.2 °F - 62.6 °F 65% 29.77 in 7.0 mi East 5.8 mph - N/A   Clear
9:53 PM 73.4 °F - 62.6 °F 69% 29.78 in 10.0 mi ESE 5.8 mph - N/A   Clear
10:12 PM 71.6 °F - 62.6 °F 73% 29.78 in 10.0 mi SE 6.9 mph - N/A   Clear
10:33 PM 71.6 °F - 62.6 °F 73% 29.78 in 10.0 mi ESE 5.8 mph - N/A   Scattered Clouds
10:53 PM 71.6 °F - 62.6 °F 73% 29.78 in 10.0 mi ESE 6.9 mph - N/A   Scattered Clouds
11:12 PM 71.6 °F - 62.6 °F 73% 29.77 in 10.0 mi ESE 5.8 mph - N/A   Clear
11:33 PM 69.8 °F - 62.6 °F 78% 29.76 in 10.0 mi ESE 8.1 mph - N/A   Clear
11:53 PM 69.8 °F - 62.6 °F 78% 29.76 in 10.0 mi ESE 9.2 mph - N/A   Clear